Theta_e
307 309 309 306 307 307 308 309 309 308 306 306 307 309 310 312 313 315 320 321 324 327 328 332 334 332 331 330 328 327 327 327 326 323 323 325 324 322 322 321 321 320 320 320
305 306 305 305 306 307 309 310 310 309 309 307 307 307 307 309 311 313 316 319 322 323 326 331 332 332 331 329 328 326 327 327 327 323 323 321 320 318 318 317 316 316 317 315
307 305 305 305 306 308 309 310 310 310 309 309 307 307 306 306 308 311 312 314 319 321 323 329 331 331 330 329 327 326 326 327 327 322 322 319 316 312 309 309 311 309 310 309
306 306 306 308 309 309 310 309 309 310 309 308 308 308 306 305 306 308 309 312 314 318 319 324 330 329 329 328 328 326 326 326 327 322 319 318 313 308 307 306 305 304 304 303
307 307 307 308 309 309 309 309 309 310 311 311 309 308 305 307 309 308 310 311 312 316 318 320 329 329 328 328 327 326 326 327 326 321 318 317 313 312 307 304 303 301 299 299
307 306 306 308 308 309 309 310 311 311 311 311 309 308 307 307 307 307 307 311 312 313 318 318 326 328 328 329 328 328 328 328 325 321 318 317 314 310 305 301 300 297 297 296
304 304 307 308 310 307 310 311 310 304 314 306 309 311 308 307 307 306 307 308 309 312 314 317 318 327 327 329 329 329 329 327 324 319 318 317 316 313 307 301 298 295 294 294
303 302 304 304 304 305 307 310 313 312 305 309 309 309 313 310 310 313 316 315 314 315 315 316 318 327 327 328 329 328 327 326 321 319 316 315 310 305 301 298 296 294 294 292
304 304 303 303 307 308 311 309 310 311 308 311 310 311 310 313 313 312 311 311 312 312 314 315 317 326 327 328 328 328 326 320 316 316 313 307 305 302 298 296 296 294 292 291
303 304 303 303 303 308 310 310 311 313 312 313 309 311 318 314 312 310 308 307 308 309 310 311 318 326 326 326 324 321 314 309 308 308 304 301 299 298 296 296 293 293 292 291
301 304 303 303 306 309 308 311 311 313 312 315 315 311 315 314 312 309 306 305 306 307 307 309 318 319 313 311 310 305 304 303 301 301 298 297 295 295 295 293 292 291 291 291
302 303 302 302 302 304 307 312 308 312 312 312 312 312 314 312 310 307 306 303 303 305 306 309 310 308 306 304 303 301 299 297 296 296 294 293 293 293 293 292 291 291 290 291
300 301 301 303 310 309 306 305 307 309 311 312 314 315 312 311 307 304 304 302 302 303 302 303 305 304 302 300 298 296 294 293 292 293 293 292 292 292 291 291 292 291 291 287
300 301 299 303 303 303 304 305 306 310 312 307 309 310 309 307 305 303 302 301 301 301 301 300 300 300 297 296 294 293 292 292 292 292 291 290 291 292 291 292 291 291 285 283
298 298 299 300 302 303 304 306 308 312 307 307 307 306 308 304 303 301 299 299 300 299 298 297 297 296 294 292 291 291 291 292 291 291 290 290 291 291 292 291 288 284 283 282
297 299 300 300 302 307 308 309 308 310 306 304 303 306 304 302 303 301 299 299 299 297 296 295 293 293 292 291 291 290 290 290 291 290 289 290 291 292 290 285 282 282 282 281
297 300 299 299 302 304 308 308 306 308 305 304 303 302 301 302 303 300 299 298 297 296 295 294 293 292 292 291 291 290 290 291 292 291 290 290 290 286 283 282 282 282 282 282
297 297 300 299 305 311 307 303 303 306 306 304 301 301 299 300 302 298 297 297 296 295 294 293 292 291 291 291 291 291 292 292 290 288 288 289 285 283 282 282 282 282 282 282
295 298 296 304 302 305 306 303 303 303 308 303 300 299 298 299 304 300 296 295 294 293 292 291 291 290 290 291 290 290 289 288 287 285 284 283 283 282 282 282 282 282 281 280
299 300 301 299 305 306 305 301 301 302 309 302 299 298 297 300 304 301 295 295 293 291 291 291 290 289 289 289 290 288 286 286 283 283 283 283 283 282 282 282 281 281 280 280
297 296 298 301 303 301 301 299 300 308 309 300 298 297 296 298 298 298 295 294 291 291 291 290 289 287 287 288 288 284 283 282 282 283 283 282 282 282 282 281 281 280 280 279
294 293 295 301 303 301 300 300 305 303 298 298 296 295 295 297 297 296 293 292 291 291 290 289 288 287 286 286 285 283 282 282 282 282 282 282 282 281 281 281 280 280 279 279
291 297 299 300 301 299 298 298 297 294 294 295 294 293 294 295 295 294 292 290 289 288 288 288 287 286 286 285 284 282 282 283 283 282 281 281 281 281 281 281 280 279 279 278
291 294 296 298 298 300 298 296 292 292 292 291 291 292 293 294 293 292 290 289 288 287 287 287 287 286 286 284 284 283 282 282 283 282 281 281 282 280 283 281 279 279 278 278
291 291 290 294 296 295 293 291 290 291 289 289 290 290 289 291 291 290 289 287 286 286 287 287 286 285 285 285 283 284 282 283 282 281 281 282 280 281 281 279 279 278 278 278
289 290 293 292 293 294 293 290 289 289 288 287 287 288 287 288 288 287 286 286 286 286 286 285 285 284 283 283 282 282 285 283 281 280 281 282 282 280 279 278 277 277 277 277
Wind_Speed
4 4 6 11 10 12 13 13 14 14 14 18 20 23 19 17 20 19 17 12 14 18 15 27 31 30 30 27 31 35 37 30 29 30 30 29 28 24 23 22 21 19 17 16
6 6 11 9 10 11 12 14 14 13 10 13 16 25 21 19 23 21 19 17 14 14 8 18 29 30 31 30 30 34 35 35 31 29 30 28 30 23 24 23 22 20 19 17
7 10 9 10 12 13 11 14 13 16 15 12 15 25 22 20 25 22 23 17 16 15 11 8 20 29 30 30 32 35 37 37 33 31 32 27 26 24 20 21 21 17 17 16
6 5 9 11 13 11 11 8 12 14 11 3 7 10 16 20 19 21 25 22 19 16 12 7 16 24 30 31 31 32 33 36 33 34 33 38 27 22 20 25 21 20 17 16
7 9 11 13 9 8 7 10 12 14 12 12 10 6 5 5 9 14 14 17 24 18 17 14 18 24 30 35 31 33 34 36 35 36 38 37 27 22 28 26 24 20 19 19
14 13 13 8 10 12 15 13 15 14 8 5 15 9 6 4 9 13 18 14 22 22 19 17 18 31 31 33 33 34 37 37 35 37 38 35 33 32 32 29 26 24 24 25
15 8 2 1 11 10 6 9 4 4 2 5 7 5 15 24 24 20 19 15 10 14 21 18 17 18 28 31 31 32 34 35 36 37 38 33 36 37 36 34 32 31 30 28
6 7 9 16 13 10 14 1 5 5 3 12 12 7 7 14 11 7 7 11 13 14 8 13 18 18 29 32 34 33 33 31 37 36 34 31 33 32 31 31 33 33 32 31
5 5 21 20 6 1 4 3 6 5 9 6 4 7 9 15 17 20 20 20 15 14 16 14 13 22 27 33 36 37 33 31 35 38 35 32 31 31 32 33 35 36 34 33
4 10 9 10 15 5 4 6 4 2 5 5 4 10 5 17 20 24 22 19 17 16 20 15 14 18 24 24 24 26 36 37 37 37 33 32 31 32 34 38 37 38 35 33
11 5 10 11 3 6 3 2 2 4 4 3 5 5 6 11 14 19 22 19 17 16 16 18 9 12 23 23 28 27 33 37 36 38 36 37 36 37 40 38 40 36 34 30
5 4 6 15 22 11 3 4 8 4 4 6 7 7 2 14 18 19 19 19 17 13 11 9 11 14 21 21 22 26 31 34 38 42 40 42 43 43 46 43 38 35 31 27
6 3 6 8 3 2 4 15 10 13 9 8 5 5 15 15 21 19 16 15 12 7 6 7 9 12 16 21 23 25 27 34 37 43 48 46 46 46 42 42 36 31 28 24
2 4 5 7 15 16 16 22 20 12 4 10 9 16 21 16 22 23 20 11 9 5 6 7 5 12 19 22 24 27 28 30 42 43 39 43 45 47 42 39 34 29 25 25
6 7 7 15 18 18 21 20 18 8 4 5 15 20 16 21 20 16 16 9 4 3 6 9 7 11 18 24 24 29 26 39 34 43 43 44 44 44 38 34 30 27 25 23
5 5 11 15 9 5 12 11 13 4 6 9 18 12 18 22 13 16 15 9 7 7 8 10 12 14 15 24 27 28 32 35 41 40 41 44 42 38 34 31 30 28 25 22
4 4 5 5 13 17 1 3 8 9 6 8 9 15 14 22 13 19 15 10 8 9 9 10 12 15 22 27 29 29 31 41 43 40 41 41 39 34 32 31 30 27 24 21
4 5 2 5 10 2 2 6 5 8 2 5 13 19 19 19 8 18 15 10 10 11 12 12 13 23 27 35 36 36 37 39 37 35 38 35 33 31 30 28 27 25 22 20
10 4 3 3 3 7 3 5 6 3 4 7 14 19 20 22 6 13 18 13 11 13 12 18 23 26 28 31 33 35 34 35 36 31 30 31 33 32 30 27 26 23 22 19
7 9 5 4 4 3 2 7 5 6 4 8 11 15 19 18 14 11 15 12 11 14 16 21 24 27 30 28 33 33 28 29 25 26 30 30 30 29 27 26 23 20 18 17
3 3 6 6 4 7 4 12 2 3 4 10 8 10 13 9 6 7 9 11 15 16 17 22 22 22 23 29 32 27 25 24 27 31 30 29 27 26 24 23 20 17 17 16
6 4 4 3 3 6 4 6 4 3 6 5 6 8 9 10 10 11 10 10 9 12 16 18 21 20 22 24 28 25 25 26 29 30 30 27 25 24 22 21 18 15 15 14
3 5 2 6 5 2 3 3 3 3 5 5 5 6 8 7 9 10 9 10 11 13 14 16 20 22 20 22 27 29 26 29 31 30 28 26 25 23 20 18 16 15 13 12
5 2 3 2 4 4 4 2 2 2 4 6 5 5 6 6 7 7 8 8 9 13 14 16 19 18 19 21 24 28 28 29 31 30 27 26 24 22 17 16 14 14 12 11
4 4 5 5 8 8 5 2 2 3 6 5 5 5 7 6 5 4 4 6 8 11 15 16 16 18 20 23 26 25 26 27 29 28 26 23 23 20 17 15 13 12 11 7
6 7 7 6 3 2 0 3 2 4 3 5 5 4 7 7 4 3 5 7 9 13 16 18 18 20 20 25 26 26 24 23 28 27 23 21 20 17 16 17 18 13 14 15
Wind_Direction
327 323 332 10 337 317 304 295 293 292 290 290 289 289 286 293 288 286 285 287 272 234 196 188 187 187 193 196 179 181 186 193 188 182 176 166 164 174 179 173 170 175 180 186
343 275 350 333 301 301 294 287 287 288 285 282 291 281 283 268 269 263 266 270 273 278 223 180 171 180 192 195 185 178 182 190 192 182 177 169 171 175 181 176 174 176 180 182
316 283 332 325 314 311 308 296 302 300 312 287 294 283 265 253 250 259 262 261 261 258 270 231 173 179 187 195 192 182 182 190 191 179 169 167 167 169 168 171 172 171 175 174
282 275 306 323 308 309 300 305 314 304 312 295 349 290 292 285 274 239 246 249 249 253 250 219 190 187 183 196 198 187 184 192 189 177 168 175 170 161 180 173 167 163 164 160
276 317 312 307 297 320 268 309 304 291 284 293 264 264 270 340 275 281 241 243 239 235 245 240 184 190 191 191 195 193 188 193 185 176 180 180 170 174 172 171 164 157 150 148
261 271 264 253 309 289 271 301 294 270 258 258 255 210 306 239 248 256 254 248 230 226 223 234 192 184 189 193 195 195 189 190 180 179 184 178 172 169 168 169 161 151 144 138
314 329 90 25 313 324 20 318 302 334 189 230 257 244 246 287 282 285 293 295 281 224 219 229 224 179 187 186 192 192 187 177 178 173 182 182 182 181 178 169 162 151 142 137
337 323 334 348 320 289 304 351 284 295 288 291 291 243 244 239 289 312 352 347 340 334 324 241 209 183 184 182 180 184 186 173 172 172 177 181 181 175 164 164 155 145 140 134
310 268 320 300 288 48 337 265 299 270 255 258 238 277 287 28 0 348 339 332 328 325 316 313 283 181 181 181 180 180 177 156 160 169 166 167 171 168 157 156 152 143 138 130
298 297 280 308 323 37 204 318 291 266 300 301 291 296 349 355 338 330 323 318 309 314 306 304 297 180 170 163 162 159 152 148 151 155 156 151 152 151 150 147 140 139 134 129
308 241 293 306 280 318 343 291 301 271 255 281 301 291 26 334 326 323 316 308 303 299 301 293 259 119 115 126 138 137 137 135 134 140 140 139 138 141 140 134 135 133 129 128
333 296 283 283 290 269 120 268 325 270 304 274 265 280 47 349 331 324 316 308 298 296 304 311 127 122 117 117 124 128 129 128 132 135 132 129 133 133 132 133 133 131 131 129
341 277 308 320 22 102 333 315 311 298 275 254 272 285 357 334 335 332 320 312 305 305 345 342 113 113 115 115 115 116 120 125 126 130 131 129 126 127 129 131 130 134 128 132
252 266 223 265 285 307 296 302 308 300 300 314 267 326 322 334 332 332 326 312 314 340 50 53 45 100 103 105 110 113 116 119 124 120 122 119 123 128 132 129 130 126 137 136
347 274 274 271 274 281 282 286 298 308 337 307 311 303 306 332 319 320 315 317 338 20 74 75 65 93 99 99 99 107 112 118 118 116 115 116 125 129 128 128 127 137 137 137
308 283 313 301 282 284 300 303 328 313 332 323 322 321 339 316 319 337 342 347 28 41 60 92 94 90 95 100 105 110 110 109 110 109 111 120 126 127 128 134 138 135 133 133
285 294 339 275 326 314 247 315 329 321 25 318 341 313 325 335 354 359 350 6 37 56 61 80 96 98 100 103 106 102 106 112 112 114 117 125 128 128 140 139 135 133 135 136
291 320 279 288 318 356 274 31 295 304 340 337 333 338 336 332 349 8 9 17 39 50 65 76 85 88 95 101 102 110 109 109 113 114 118 126 132 134 136 135 134 135 134 131
219 266 285 295 293 270 268 358 349 0 316 354 343 341 340 340 331 19 9 32 45 53 56 66 76 82 90 98 107 107 108 110 113 114 121 133 139 136 139 138 137 136 134 130
229 227 271 336 297 293 330 325 342 124 339 28 357 346 343 349 11 7 357 28 47 52 61 74 76 84 91 100 114 108 102 108 111 121 131 137 138 139 137 135 132 129 125 120
217 212 224 244 271 288 322 308 237 21 290 358 353 349 347 3 357 348 3 31 50 59 68 86 92 91 100 111 111 99 104 104 125 131 133 133 136 135 131 128 123 123 123 128
188 171 193 200 239 277 3 335 66 286 323 336 348 347 338 343 8 22 26 36 48 66 76 87 92 91 104 109 111 103 100 123 128 129 128 127 128 126 126 124 122 127 127 124
274 202 206 184 223 229 186 223 334 353 292 326 338 334 335 1 12 21 27 37 42 57 74 91 101 102 111 125 128 117 128 135 132 130 126 125 127 127 126 124 125 125 129 121
245 187 236 30 271 262 245 291 101 344 318 330 333 345 359 30 23 28 26 32 42 58 77 100 103 100 107 128 132 128 139 140 137 131 130 130 128 126 120 118 123 119 114 114
208 130 201 254 278 278 244 170 59 17 31 5 351 37 28 53 40 40 48 49 52 72 97 108 111 113 123 135 134 138 142 142 138 136 135 132 131 134 127 114 112 109 106 116
188 199 197 223 222 168 51 99 70 45 17 5 357 30 39 45 90 83 52 60 84 93 112 112 116 118 126 138 141 144 151 152 143 140 144 144 140 130 121 117 108 101 103 97